Location: Risskov
(56.1972°N, 10.2480°E)
Time: 00:27:12
(UTC+00:00)

Cosmos 1892 - Pass Details

Date: 05 July 2020
Orbit: 505 x 523 km, 82.5° (Epoch: 03 August)

Event Time Altitude Azimuth Distance (km) Brightness Sun altitude
Exits shadow 22:41:53 - 216° (SW) 1,991 5.3 -10.6°
Reaches altitude 10° 22:42:33 10° 220° (SW) 1,727 5.0 -10.7°
Maximum altitude 22:46:07 39° 290° (WNW) 788 3.9 -10.7°
Drops below altitude 10° 22:49:44 10° 0° (N) 1,750 6.9 -10.8°
Sets 22:52:00 0° 8° (N) 2,645 8.0 -10.8°
